CHERITA, SEDOKA AND LIMERICK

Folder Contents

Author's Full Portfolio

Title Comments Views Updated Posted
1 ONWARD WE TREK 29 2021/07/25 5 days ago
2 COLUMBO AS POET 35 2021/07/20 1 week ago
3 STORM CLOUDS ON MY TRAIL 32 2021/07/05 3 weeks ago
4 POST MODERN BATHROOM 55 2021/06/26 4 weeks ago
5 BRIEF PATRIOTIC MOMENT 38 2021/06/24 5 weeks ago
6 WONDROUS GENTRIFICATION 2 57 2021/06/13 6 weeks ago
7 BUKOWSKI FACE MASK 64 2021/06/09 7 weeks ago
8 TRUER WORDS 47 2021/06/06 7 weeks ago
9 DRIFTING LOST OLD SAN JUAN 148 2021/05/10 11 weeks ago
10 FROM SPRING GARDEN "EL" STOP 61 2021/04/28 13 weeks ago
11 ENDLESS UTOPIA 69 2021/04/27 13 weeks ago
12 BURRITO IN ERASERHOOD 79 2021/04/25 13 weeks ago
13 DO NOT ENTER! 54 2021/04/23 14 weeks ago
14 TURKEY PLAYING CHICKEN 86 2021/04/21 14 weeks ago
15 MUSHED CORN 66 2021/04/19 14 weeks ago
16 COMMENTARY ON THE WALL 172 2021/04/09 16 weeks ago
17 OLD FASHIONED BARREL BOLT LOCK 2 143 2021/03/16 19 weeks ago
18 FOLLOWING A SHADOW 82 2021/03/14 19 weeks ago
19 VIBES DID GATHER 80 2021/03/12 20 weeks ago
20 UNKEPT PROMISES 103 2021/03/10 20 weeks ago
21 5 PAINFUL MINUTES 2 156 2021/03/07 20 weeks ago
22 DOGGED DETERMINATION 2 117 2021/03/05 21 weeks ago
23 HAMBURG CENTRAL STATION 2 85 2021/02/27 21 weeks ago
24 GIGGLING AT ABSURDITY 235 2021/01/23 26 weeks ago
25 THOSE DECISIONS NOT SO WISE 98 2021/01/08 29 weeks ago
26 OVERRATED 2 137 2021/01/08 29 weeks ago
27 SALUTING WARRIORS 186 2021/01/04 29 weeks ago
28 ICARUS FOOLISHLY FANCIED 2 120 2020/12/27 30 weeks ago
29 WOKE FOLK 1 103 2020/12/24 31 weeks ago
30 I CONTAIN MULTITUDES 92 2020/12/20 31 weeks ago
31 KRAMPUS POEM 129 2020/12/14 32 weeks ago
32 SINISTER DIMPLES (cherita) 123 2020/12/08 33 weeks ago
33 EDDINGTON STATION 1 134 2020/12/04 34 weeks ago
34 VINCENT'S LOST EAR 139 2020/12/04 34 weeks ago
35 FAKE GODS 360 2020/11/28 34 weeks ago
36 PHILLY IN PINK HAZE 2 210 2020/11/27 35 weeks ago
37 DAMN PAPARAZZI 120 2020/11/25 35 weeks ago
38 WISTFUL WINKS 132 2020/11/19 36 weeks ago
39 COPACETIC MUSES 2 131 2020/11/10 37 weeks ago
40 UTOPIAN FANTASY 133 2020/11/03 38 weeks ago
41 SACRED COW 2 131 2020/11/02 38 weeks ago
42 DOMESTICATED HEADHUNTER 4 308 2020/11/16 38 weeks ago
43 GHOSTS POPULATE THE ATTIC 2 178 2020/10/29 39 weeks ago
44 JETTISON THE MILK 129 2020/10/24 39 weeks ago
45 PERPLEXED BY CYNICISM 2 192 2020/10/16 41 weeks ago
46 AESTHETIC VALUES 2 198 2020/10/14 41 weeks ago
47 PERFUMED SCENT 6 162 2020/10/12 41 weeks ago
48 ROUTINE HUMDRUM 2 165 2020/10/05 42 weeks ago
49 INDESTRUCTIBLE 139 2020/10/05 42 weeks ago
50 TRAMPOLINE 4 438 2021/05/18 43 weeks ago
51 DANCING RAINDROPS 2 128 2020/09/21 44 weeks ago
52 PARADISE ALLUDED 2 134 2020/09/20 44 weeks ago
53 NAMELESS LADY 2 129 2020/09/17 45 weeks ago
54 SKA BEAT 2 128 2020/09/16 45 weeks ago
55 CRUEL JOKE 2 131 2020/09/15 45 weeks ago
56 LOMBARDI'S BLEMISH 2 155 2020/09/12 45 weeks ago
57 SILENCE WHISTLES 1 116 2020/09/07 46 weeks ago
58 IRISHED UP JAVA 2 143 2020/09/03 47 weeks ago
59 MY OWN PRIVATE MARDI GRAS 312 2020/07/29 1 year ago
60 7 BUCKS IT IS 2 125 2020/07/25 1 year ago
61 SPIES LIKE US 150 2020/07/23 1 year ago
62 BATTERY ON ZERO 4 151 2020/07/23 1 year ago
63 SPLITTING AN ATOM 138 2020/07/21 1 year ago
64 WHO HID THE REMOTE 125 2020/07/20 1 year ago
65 OF PANIC AND YEARNING 4 138 2020/07/15 1 year ago
66 DEFEND THE NIGHT 142 2020/06/15 1 year ago
67 INCANDESCENT RUBIES 2 164 2020/06/13 1 year ago
68 STEP ABOVE 4 149 2020/06/11 1 year ago
69 ELUDES THE NET 4 183 2020/06/08 1 year ago
70 CONSPIRACY 2 155 2020/06/06 1 year ago
71 BATTERY ACID 157 2020/06/03 1 year ago
72 CALL TO ARMS 2 151 2020/06/02 1 year ago
73 WHIMSICAL ALARM 158 2020/06/01 1 year ago
74 FINAL FRONTIER 2 146 2020/05/31 1 year ago
75 ELASTIC FIGURINES 173 2020/05/30 1 year ago
76 SLOW TRICKLE 2 150 2020/05/30 1 year ago
77 WOUNDS OF A TORN HEART 137 2020/05/26 1 year ago
78 NO-THINGNESS 4 161 2020/05/25 1 year ago
79 CAMOUFLAGE SLEEPING BAG 9 150 2020/05/24 1 year ago
80 MY JAMAICAN FANTASY 140 2020/05/21 1 year ago
81 FIRING SQUAD 2 135 2020/05/20 1 year ago
82 ENDLESS UTOPIAN DREAMS 182 2020/05/19 1 year ago
83 UNOBTRUSIVE REFLEX 3 177 2020/05/17 1 year ago
84 WAYLAY THE NEW DAY 8 212 2020/05/17 1 year ago
85 SIMILES OF GODDESSES 2 245 2020/05/16 1 year ago
86 DELUSIVE GOLD CARD 1 147 2020/05/15 1 year ago
87 FAKE I.D. 2 231 2020/05/13 1 year ago
88 PECULIAR RHYTHM 146 2020/05/12 1 year ago
89 OBSCENE ODES TO ISIS 2 659 2020/05/11 1 year ago
90 TOO COOL MORNING 4 228 2020/05/10 1 year ago
91 ALCHEMIST'S POTION 163 2020/05/05 1 year ago
92 CONTROLLED CHAOS IN MY HEART 182 2020/05/04 1 year ago
93 BLIND CONFORMISTS 4 164 2020/05/03 1 year ago
94 HUMAN AURAS 166 2020/05/02 1 year ago
95 COMPLETELY ENVELOPED 2 148 2020/05/02 1 year ago
96 LUMINATED LAMP SHADE 177 2020/05/01 1 year ago
97 ANALYST NAMED FREUD 4 271 2020/04/28 1 year ago
98 A ONCE RURAL ROAD 2 160 2020/04/28 1 year ago
99 WALKING THE DOG 173 2020/04/24 1 year ago
100 CARTWHEELING TO THE GRAVE 189 2020/04/23 1 year ago
101 MOUNTAIN MUD 2 167 2020/04/21 1 year ago
102 SLAIN BY THE MOB 160 2020/04/19 1 year ago
103 GILDED IN GOLD 4 307 2020/04/18 1 year ago
104 ZODIACS OF THEORY 4 188 2020/04/15 1 year ago
105 NOW IS THE ONLY TIME 152 2020/04/13 1 year ago
106 ORISON CHANTED 2 162 2020/04/11 1 year ago
107 SPITTING CRISP JEWELS 664 2020/04/10 1 year ago
108 DECADENCE PERSISTS 2 163 2020/04/08 1 year ago
109 CADENCE OF MOLIERÉ 168 2020/04/06 1 year ago
110 NORSE DEITIES 165 2020/04/04 1 year ago
111 WILD BILL IS SHOT 170 2020/04/01 1 year ago
112 PSALMS ORATED 2 169 2020/03/27 1 year ago
113 EXORCISM OF SOUL 2 171 2020/03/23 1 year ago
114 BROKEN GLASS INFERNO 179 2020/03/22 1 year ago
115 DISCRIMINATORY COLORS 2 185 2020/03/22 1 year ago
116 DANCE OF COYOTES 2 199 2020/03/21 1 year ago
117 WORDS MYSTIQUE 2 206 2020/03/21 1 year ago
118 COMMA 200 2020/02/28 1 year ago
119 PISS POOR COMMUNIQUÉ 4 213 2020/02/28 1 year ago
120 EMPTY POUCH 221 2020/02/26 1 year ago
121 CURIOUS BYSTANDER 226 2020/02/23 1 year ago
122 CUPID RHYMES WITH STUPID 4 274 2020/02/22 1 year ago
123 WINES OF GALAXIES 2 213 2020/02/21 1 year ago
124 BILINGUAL SPLENDOR 2 245 2020/02/19 1 year ago
125 ECSTATIC WORDS 2 203 2020/02/18 1 year ago
126 TWISTED MUSTACHE 229 2020/02/09 1 year ago
127 I WANTED TO READ WHITMAN 6 299 2020/02/08 1 year ago
128 RAINY MORNING DAWN 4 238 2020/02/07 1 year ago
129 A BLANK PAGE 2 248 2020/02/06 1 year ago
130 LATEST, STUPID MEME 202 2020/02/04 1 year ago
131 WROTE POEMS TO GET LAID 203 2020/02/04 1 year ago
132 JETTISONED FROM THE PEDESTAL 2 201 2020/02/02 1 year ago
133 WALTZ OVER BROKEN GLASS 204 2020/02/01 1 year ago
134 ENDLESSLY CASCADE 242 2020/02/01 1 year ago
135 WARNING SIGNS 2 207 2020/01/30 1 year ago
136 ANSWERS SOUGHT 203 2020/01/29 1 year ago
137 WRITTEN BY SCHOLARS 230 2020/01/27 1 year ago
138 VISIONARY POETS 202 2020/01/27 1 year ago
139 YOU MUST BE SHROOMIN' 681 2020/01/24 1 year ago
140 IGUANA RAIN 201 2020/01/22 1 year ago
141 A MERE DUSTING 201 2020/01/20 1 year ago
142 JEJUNE YOUNGSTER 206 2020/01/19 1 year ago
143 AUBURN FOX 203 2020/01/18 1 year ago
144 PIGEONS PLAYING CHICKEN 4 223 2020/01/17 1 year ago
145 SINFULLY DELISH 2 640 2020/01/17 1 year ago
146 I NEED TO LEARN 5 220 2020/01/10 1 year ago
147 FANCIED MEESELF A POET 2 235 2020/01/08 1 year ago
148 AUTHOR OF THIS GRAFFITI 320 2020/01/04 1 year ago
149 LATEST TREND 222 2020/01/04 1 year ago
150 RAIN DELAY 226 2020/01/03 1 year ago
151 SUDDENLY WORDS DON'T FLOW 259 2020/01/01 1 year ago
152 BYPASSING THE SCHUYLKILL 2 219 2019/12/31 1 year ago
153 TARNISHING TUNDRA 240 2019/12/22 1 year ago
154 COOL DECEMBER AIR 233 2019/12/18 1 year ago
155 VIKING NIGHT 231 2019/12/17 1 year ago
156 URBAN BLIGHT 321 2019/12/11 1 year ago
157 BUILT IN A DAY 231 2019/12/03 1 year ago
158 LEON TROTSKY 451 2019/12/03 1 year ago
159 MODICUM OF HOPE 267 2019/12/01 1 year ago
160 NORTH STAR BAR 218 2019/11/28 1 year ago
161 DEMONIC SOUNDS 268 2019/11/24 1 year ago
162 HEAD OVER HEELS 246 2019/11/21 1 year ago
163 TRASH PICKER 251 2019/11/20 1 year ago
164 BODY COUNT 613 2020/01/27 1 year ago
165 FURNISHED APARTMENT 265 2019/11/17 1 year ago
166 CURRENT ORBIT 2 282 2019/11/14 1 year ago
167 MEMPHIS MINNIE 475 2019/11/13 1 year ago
168 TREASURE CHEST 2 273 2019/11/12 1 year ago
169 HELL'S BELLS 251 2019/11/11 1 year ago
170 PUSSY RIOT BADGE 358 2019/11/09 1 year ago
171 SELF MADE PEDESTAL 2 428 2019/11/08 1 year ago
172 WISE AMONG US 252 2019/11/04 1 year ago
173 DAMN ROOSTER 266 2019/11/03 1 year ago
174 ENDLESS IMAGES 2 315 2019/11/03 1 year ago
175 NORTH PHILADELPHIA STATION 2 289 2019/11/02 1 year ago
176 ENOUGH CLICHÉ 4 1,367 2019/11/01 1 year ago
177 EXCELLENT MISERY 2 1,339 2019/10/31 1 year ago
178 STREET LAMP GLOWING 248 2019/10/30 1 year ago
179 SURREAL COMEDY 258 2019/10/27 1 year ago
180 NEW WORLD OUT OF ORDER 241 2019/10/23 1 year ago
181 APOLITICAL CREATIVITY 2 235 2019/10/22 1 year ago
182 BEER COASTER 313 2019/10/21 1 year ago
183 BOUND & GAGGED 231 2019/10/20 1 year ago
184 DRINK WITH BUKOWSKI 230 2019/10/18 1 year ago
185 FALSAMUNDO! 418 2019/10/18 1 year ago
186 TRUE TREASURE 2 316 2019/10/18 1 year ago
187 CYNICISM MET WITH SCORN 2 1,015 2019/10/18 1 year ago
188 GOING TO NEW ORLEANS 440 2019/10/18 1 year ago
189 LASS FROM MANHATTAN 2 391 2019/10/18 1 year ago
190 MEGAN'S GOLDEN BOOT 2 1,060 2019/10/18 1 year ago
191 BEASTLY BUT BEAUTIFUL (limerick) 591 2019/10/18 1 year ago
192 MAGICAL PILL 345 2019/10/18 1 year ago
193 MEANINGLESS JOB 357 2019/10/26 1 year ago
194 LADIES GARMENTS 306 2019/10/18 2 years ago
195 DUDE (LIMERICK) 2 378 2019/10/18 2 years ago
196 LIMERICKS ARE FINE 3 315 2019/10/18 2 years ago